Location: Peterborough
(44.3048°N, 78.3199°W)
Time: 03:54:52
(UTC-04:00)

ISS - Pass Details

Date: 18 May 2025
Orbit: 415 x 418 km, 51.6° (Epoch: 20 June)

Event Time Altitude Azimuth Distance (km) Brightness Sun altitude
Rises 23:09:59 0° 302° (WNW) 2,361 1.1 -20.3°
Reaches altitude 10° 23:12:10 10° 310° (NW) 1,495 0.0 -20.5°
Maximum altitude 23:15:21 40° 21° (NNE) 629 -2.6 -20.8°
Enters shadow 23:15:57 36° 50° (NE) 677 -2.7 -20.8°
